Weather History for Georgetown, DE

Change the Weather History Date:

Saturday, November 29, 2014

  Actual Average Record
Temperature  
Mean Temperature 36 °F 44 °F  
Max Temperature 48 °F 54 °F 75 °F (1990)
Min Temperature 24 °F 35 °F 17 °F (1955)
Degree Days  
Heating Degree Days 29 21  
Month to date heating degree days 568 477  
Since 1 July heating degree days 749 763  
Cooling Degree Days 0 0  
Month to date cooling degree days 2 0  
Year to date cooling degree days 1151 1194  
Moisture  
Dew Point 25 °F    
Average Humidity 62    
Maximum Humidity 81    
Minimum Humidity 42    
Precipitation  
Precipitation T in 0.11 in 1.47 in (1982)
Month to date precipitation 3.53 3.24  
Year to date precipitation 40.24 40.36  
Sea Level Pressure  
Sea Level Pressure 30.31 in    
Wind  
Wind Speed 5 mph (South)    
Max Wind Speed 13 mph    
Max Gust Speed 18 mph    
Visibility 10 miles    
Events      
T = Trace of Precipitation, MM = Missing Value Source: NWS Daily Summary

Daily Weather History Graph

Daily Weather History Graph

Search for Another Location

Airport:

Trip Planner

Search our weather history database for the weather conditions in past years. The results will help you decide how hot, cold, wet, or windy it might be!

Date:

Astronomy

Nov. 29, 2014 Rise Set
Actual Time 6:58 AM EST 4:40 PM EST
Civil Twilight 6:29 AM EST 5:10 PM EST
Nautical Twilight 5:56 AM EST 5:42 PM EST
Astronomical Twilight 5:24 AM EST 6:14 PM EST
Moon 12:29 PM EST (11/29) No Moon Set
Length of Visible Light 10h 40m
Length of Day
9h 42m
First Quarter, 53% of the Moon is Illuminated
Nov 29
First Quarter
Dec 6
Full
Dec 14
Last Quarter
Dec 21
New
Dec 28
First Quarter

Hourly Weather History & Observations

Time (EST) Temp. Windchill Dew Point Humidity Pressure Visibility Wind Dir Wind Speed Gust Speed Precip Events Conditions
12:54 AM 25.0 °F - 19.0 °F 78% 30.32 in 10.0 mi Calm Calm - N/A   Clear
1:54 AM 25.0 °F - 19.9 °F 81% 30.33 in 10.0 mi Calm Calm - N/A   Clear
2:54 AM 24.1 °F - 19.9 °F 84% 30.33 in 10.0 mi Calm Calm - N/A   Clear
3:54 AM 25.0 °F - 19.9 °F 81% 30.33 in 10.0 mi Calm Calm - N/A   Scattered Clouds
4:54 AM 27.0 °F - 21.9 °F 81% 30.34 in 10.0 mi Calm Calm - N/A   Partly Cloudy
5:54 AM 28.0 °F - 23.0 °F 81% 30.34 in 10.0 mi Calm Calm - N/A   Partly Cloudy
6:54 AM 28.9 °F - 21.9 °F 75% 30.36 in 10.0 mi Calm Calm - N/A   Clear
7:54 AM 28.9 °F - 23.0 °F 78% 30.37 in 10.0 mi Calm Calm - 0.00 in   Mostly Cloudy
8:54 AM 32.0 °F - 24.1 °F 73% 30.38 in 10.0 mi Calm Calm - N/A   Overcast
9:54 AM 35.1 °F - 23.0 °F 61% 30.38 in 10.0 mi Calm Calm - N/A   Overcast
10:54 AM 37.0 °F 33.3 °F 21.9 °F 54% 30.36 in 10.0 mi SSE 4.6 mph - N/A   Overcast
11:54 AM 39.9 °F 36.7 °F 23.0 °F 51% 30.33 in 10.0 mi SSE 4.6 mph - N/A   Overcast
12:54 PM 45.0 °F 41.8 °F 24.1 °F 44% 30.31 in 10.0 mi SSE 5.8 mph - N/A   Mostly Cloudy
1:54 PM 46.9 °F - 25.0 °F 42% 30.28 in 10.0 mi SSW 9.2 mph - N/A   Clear
2:54 PM 48.0 °F - 27.0 °F 44% 30.27 in 10.0 mi South 11.5 mph - N/A   Partly Cloudy
3:54 PM 46.0 °F 41.9 °F 25.0 °F 44% 30.27 in 10.0 mi SSW 8.1 mph - N/A   Partly Cloudy
4:54 PM 42.1 °F 38.4 °F 28.0 °F 58% 30.28 in 10.0 mi South 5.8 mph - N/A   Partly Cloudy
5:54 PM 39.9 °F 34.5 °F 28.0 °F 63% 30.29 in 10.0 mi South 8.1 mph - N/A   Partly Cloudy
6:54 PM 42.1 °F 37.1 °F 28.9 °F 60% 30.27 in 10.0 mi South 8.1 mph - N/A   Overcast
7:54 PM 43.0 °F 38.8 °F 30.0 °F 60% 30.27 in 10.0 mi SSW 6.9 mph - N/A   Overcast
8:54 PM 43.0 °F 38.2 °F 30.9 °F 62% 30.27 in 10.0 mi South 8.1 mph - N/A   Mostly Cloudy
9:54 PM 43.0 °F 38.2 °F 30.9 °F 62% 30.25 in 10.0 mi South 8.1 mph - N/A   Overcast
10:54 PM 45.0 °F 39.3 °F 30.0 °F 56% 30.24 in 10.0 mi SSW 11.5 mph - N/A   Overcast
11:54 PM 45.0 °F 39.7 °F 32.0 °F 60% 30.23 in 10.0 mi SSW 10.4 mph - N/A   Overcast